Tracking 27420 objects as of 10-Jun-2023
HD Live streaming from Space Station
objects crossing your sky now

FAST

Track FAST now!
10-day predictions
FAST is classified as:


NORAD ID: 24285
Int'l Code: 1996-049A
Perigee: 354.7 km
Apogee: 3,358.1 km
Inclination: 83.0 °
Period: 123.8 minutes
Semi major axis: 8227 km
RCS: 1.3393 m2 (large)
Launch date: August 21, 1996
Source: United States (US)
Launch site: AIR FORCE WESTERN TEST RANGE (AFWTR)

Designed to study Earth's aurora.
Your satellite tracking list
Your tracking list is empty




NASA's NSSDC Master Catalog

Two Line Element Set (TLE):
1 24285U 96049A   23161.34104754  .00008766  00000-0  71233-3 0  9996
2 24285  82.9536 284.0847 1825279 217.8144 127.9860 11.63350435103266
Source of the keplerian elements: AFSPC